Regional Weather Roundup
Issued by NWS

Home | Current Version | Previous Version | Text Only | Print | Product List | Glossary Off
Versions: 1 2 3 4 5 6 7 8 9 10 11 12 13 14 15 16 17 18 19 20 21 22 23 24 25 26 27 28 29 30 31 32 33 34 35 36 37 38 39 40 41 42 43 44 45 46 47 48 49 50

000
ASUS43 KIND 110309
RWRIN

WEATHER ROUNDUP FOR INDIANA
NATIONAL WEATHER SERVICE INDIANAPOLIS IN
1000 PM EST WED FEB 10 2016

NOTE: "FAIR" INDICATES FEW OR NO CLOUDS BELOW 12,000 FEET WITH NO
SIGNIFICANT WEATHER AND/OR OBSTRUCTIONS TO VISIBILITY.

* - STATION DOES NOT REPORT WEATHER SUCH AS PRECIPITATION OR FOG.

+ - STATION NOT QUALITY CONTROLLED BY THE NATIONAL WEATHER SERVICE.
    USE DATA WITH CAUTION...ESPECIALLY DEWPOINT AND RELATIVE
    HUMIDITY OBSERVATIONS.

INZ001>003-010>013-019-020-110400-
NORTHWEST INDIANA

CITY           SKY/WX    TMP DP  RH WIND       PRES   REMARKS
GARY /AIRPORT/ MOCLDY    18   1  49 W10       30.15R WCI   6
KNOX *+        CLOUDY    16  10  79 W7        30.11S WCI   6
LA PORTE +     CLOUDY    17  13  86 W5        30.10S WCI  10
MICHIGAN CITY+ FLURRIES  18  10  73 NW9       30.11R WCI   6
MONTICELLO +   CLOUDY    16   4  60 NW5       30.13R WCI   9
RENSSELAER +   MOCLDY    18   5  57 NW7       30.13S WCI   8
VALPARAISO     CLOUDY    15   8  73 W10       30.11S WCI   2

$$

LMZ046-743>745-110400-
SOUTHERN LAKE MICHIGAN

STATION/POSITION TIME  TEMP    WIND        PRES    WAVE
                       AIR SEA DIR/SP/G            HT
                 (UTC) (F)     (DEG/KT/KT) (MB)    (FT)
BURNS HARBOR     0201   18     320/  9/ 17 1020.0R
MICHIGAN CITY    0200   17     300/ 15/ 17   N/A

$$

INZ004-005-014>016-021>024-110400-
NORTH CENTRAL INDIANA

CITY           SKY/WX    TMP DP  RH WIND       PRES   REMARKS
GOSHEN         LGT SNOW  14   9  80 W12       30.07R WCI   0
LOGANSPORT +   CLOUDY    18   3  53 W6        30.12S WCI   9
PERU/GRISSOM   FLURRIES  15  10  78 NW5       30.10R WCI   8
ROCHESTER +    MOCLDY    18   5  57 W6        30.10S WCI   9
SOUTH BEND     LGT SNOW  13  10  88 W5        30.09R FOG     WCI   5
WARSAW +       CLOUDY    14   9  79 W10       30.08S WCI   1

$$

INZ006>009-017-018-025>027-110400-
NORTHEAST INDIANA

CITY           SKY/WX    TMP DP  RH WIND       PRES   REMARKS
ANGOLA *+      CLOUDY    12  10  92 W6        30.03R WCI   3
AUBURN +       CLOUDY    18   9  68 W14G20    30.06R WCI   4
FORT WAYNE     PTCLDY    16   4  59 W13       30.08R WCI   2
HUNTINGTON +   MOCLDY    12  -1  55 W8        30.09S WCI   0

$$

INZ028-029-035-036-043>045-051>053-110400-
WEST CENTRAL INDIANA

CITY           SKY/WX    TMP DP  RH WIND       PRES   REMARKS
GREENCASTLE +  PTCLDY    18   3  53 W3        30.13S
LAFAYETTE      PTCLDY    11   5  77 SW3       30.14R
TERRE HAUTE    PTCLDY    19   7  59 W6        30.16R WCI  11

$$

INZ030>032-037>040-046>048-054>057-064-065-110400-
CENTRAL INDIANA

CITY           SKY/WX    TMP DP  RH WIND       PRES   REMARKS
FRANKFORT +    CLOUDY    13   3  63 W7        30.13S WCI   3
GREENWOOD *+   CLOUDY    18  10  73 W5        30.13R WCI  11
INDIANAPOLIS   PTCLDY    13   6  74 NW6       30.12R WCI   4
-EAGLE CREEK   CLEAR     15   6  67 NW7       30.12R WCI   5
KOKOMO *+      CLOUDY    16   9  73 W9        30.11R WCI   4
MARION +       LGT SNOW  14   6  70 NW5       30.11S WCI   6
MT COMFORT *+  CLOUDY    14   7  73 NW3       30.12S
SHELBYVILLE    CLOUDY    15   6  67 W3        30.12R
ZIONSVILLE +   CLOUDY     9   4  80 W5        30.12R WCI   1

$$

INZ033-034-041-042-049-050-058-059-110400-
EAST CENTRAL INDIANA

CITY           SKY/WX    TMP DP  RH WIND       PRES   REMARKS
MUNCIE         CLOUDY    15   6  67 W10       30.10R WCI   2

$$

INZ060-061-067>069-081>083-085>088-110400-
SOUTHWEST INDIANA

CITY           SKY/WX    TMP DP  RH WIND       PRES   REMARKS
EVANSVILLE     PTCLDY    23  15  71 W6        30.20R WCI  16
HUNTINGBURG *+ MOCLDY    21  14  73 W10       30.18S WCI  10
WASHINGTON +   MOCLDY    20  12  71 W8        30.18R WCI  10

$$

INZ062-063-066-070>080-084-089>092-110400-
SOUTH CENTRAL AND SOUTHEAST INDIANA

CITY           SKY/WX    TMP DP  RH WIND       PRES   REMARKS
BEDFORD +      PTCLDY    19  10  68 W7        30.15R WCI  10
BLOOMINGTON    MOCLDY    19   7  59 W5        30.13R WCI  12
MADISON *+     PTCLDY    16   9  73 CALM      30.16R
NORTH VERNON + CLOUDY    14   5  67 CALM      30.14R
SEYMOUR +      CLOUDY    21  10  63 W3        30.16R

$$




USA.gov is the U.S. government's official web portal to all federal, state and local government web resources and services.